STARLINK-36730, 67874

Orbit data source: Space-Track

STARLINK-36730, 67874 is a payload satellite owned by SpaceX/Seattle (US) in LEO that was launched on Fri, 20 Feb 2026 UTC via an FALCON 9 launch vehicle from the Air Force Eastern Test Range (AFETR). Payload-class satellites include a variety of spacecraft equipped with specific instruments for various scientific and technological missions. These include communications satellites like Starlink; space stations such as the ISS; scientific satellites like the Hubble; Earth observation satellites from companies like Planet Labs, Umbra, and HawkEye 360; GPS; miniature CubeSats for education and research; and military/defense satellites.

Loading next visibility...
Identifier
67874, 2026-034AA
Orbit
LEO
Country
Flag of USUS
Related business
Manufacturer
SpaceX/Seattle
Mission
Operational Commercial Communications
Bus & Motor
STARLINK V2MO, Unknown motor
Mass
575 kg wet, ~530 kg dry
Launch date (UTC)
2026-02-20 (4 months ago)
Launch vehicle
FALCON 9
Launch site
Air Force Eastern Test Range (AFETR)
Object type
Payload
Rocket body
Debris
Shape & HBR
Box + 2 Pan, 17.7 m
Radar Cross Section
36.964 m², Large (>1 m²)

Expand to show TLE details & history
Last TLE update: 21 hours ago

TLE from 21 hours ago
0 STARLINK-36730
1 67874U 26034AA  26170.98003870  .00020381  00000-0  61239-3 0  9996
2 67874  53.1588  86.4992 0000969  74.8561 285.2549 15.34415463 19738
Epoch: 2026-06-19T23:31Z
TLE epoch observation values (Epoch: 2026-06-19T23:31:15.343Z)
Latitude
-0.00001°
Longitude
-174.51597°
Altitude
463.384 km
Speed
7.636 km/s
True Right ascension
05h 45m 59s
True Declination
0° 00' 00"
Sunlit
Object was in daylight at epoch
Visualization orbit readout
Latitude
Unknown
Longitude
Unknown
Altitude
Unknown
Speed
Unknown
Apparent Right ascension
Unknown
Apparent Declination
Unknown
Sunlit
N/A
Visualization observer readout
Local Sidereal Time
07:18:24
Azimuth
Unknown
Elevation
Unknown
Doppler factor
Unknown
Orbital elements
Apogee altitude
463.577 km
Perigee altitude
462.251 km
Semi-major axis
6,841.051 km
Eccentricity
0.0001
Inclination
53.1588°
RAAN
86.4992°
Arg. of periapsis
74.8561°
True anomaly
285.24419°
Mean anomaly
285.2549°
Eccentric anomaly
285.24954°
Mean motion
3.83583 °/min
Orbital period
93.85 mins
BSTAR
0.00061239
Loading maneuver chart data...
Computing Atmospheric mass density...
Loading historical data...
Loading historical data...
Loading historical data...
Loading historical data...
Loading historical data...
Loading historical data...
Loading historical data...

Documentation

Showing up to 5 results
|